,,PA_Meas_PMT16A,,PR_Meas_QMR101_102,,RH_Meas_QMH101,,SR_Meas_QMS101,,TA_Meas_QMH101,,GenWind,,GenWind,
time,status,PA,status,PR,status,RH,status,SR,status,TA,status,DirAvg,status,SpdAvg,
2014-04-28, 06:57:04,VALID,918.622,VALID,0,VALID,94.9954,VALID,26.2156,VALID,18.9438,VALID,341,VALID,0,
2014-04-28, 06:58:04,VALID,918.653,VALID,0,VALID,94.9725,VALID,29.224,VALID,18.9438,VALID,341,VALID,0,
2014-04-28, 06:59:04,VALID,918.639,VALID,0,VALID,94.9801,VALID,32.0175,VALID,18.9828,VALID,348,VALID,0.885547,
2014-04-28, 07:00:04,VALID,918.645,VALID,0,VALID,94.9039,VALID,33.9514,VALID,19.0218,VALID,349,VALID,0.820703,
2014-04-28, 07:01:04,VALID,918.635,VALID,0,VALID,94.7591,VALID,36.3151,VALID,19.0593,VALID,349,VALID,0.753906,
2014-04-28, 07:02:04,VALID,918.622,VALID,0,VALID,94.5609,VALID,40.5053,VALID,19.1568,VALID,349,VALID,0.308594,
2014-04-28, 07:03:04,VALID,918.608,VALID,0,VALID,94.1644,VALID,43.836,VALID,19.2558,VALID,344,VALID,0.683203,
2014-04-28, 07:04:04,VALID,918.621,VALID,0,VALID,93.7223,VALID,50.175,VALID,19.2738,VALID,344,VALID,0.754297,
2014-04-28, 07:05:04,VALID,918.637,VALID,0,VALID,93.3411,VALID,49.4229,VALID,19.3128,VALID,345,VALID,0.882031,
2014-04-28, 07:06:04,VALID,918.648,VALID,0,VALID,93.0362,VALID,59.8447,VALID,19.3923,VALID,360,VALID,1.025,
2014-04-28, 07:07:04,VALID,918.638,VALID,0,VALID,92.7541,VALID,46.9518,VALID,19.4103,VALID,356,VALID,0.938281,
2014-04-28, 07:08:04,VALID,918.643,VALID,0,VALID,92.6016,VALID,45.1253,VALID,19.4493,VALID,356,VALID,0.916406,
2014-04-28, 07:09:04,VALID,918.629,VALID,0,VALID,92.4415,VALID,46.7369,VALID,19.4688,VALID,358,VALID,1.09883,
2014-04-28, 07:10:04,VALID,918.664,VALID,0,VALID,92.4034,VALID,49.5304,VALID,19.4898,VALID,359,VALID,0.828516,
2014-04-28, 07:11:04,VALID,918.656,VALID,0,VALID,92.4949,VALID,52.2164,VALID,19.5078,VALID,360,VALID,0.775,
2014-04-28, 07:12:04,VALID,918.691,VALID,0,VALID,92.5102,VALID,55.8694,VALID,19.5078,VALID,359,VALID,0.766406,
2014-04-28, 07:13:04,VALID,918.668,VALID,0,VALID,92.4797,VALID,58.7703,VALID,19.5078,VALID,359,VALID,0.897656,
2014-04-28, 07:14:04,VALID,918.667,VALID,0,VALID,92.4415,VALID,61.5638,VALID,19.5468,VALID,360,VALID,0.487109,
2014-04-28, 07:15:04,VALID,918.664,VALID,0,VALID,92.655,VALID,63.2828,VALID,19.6263,VALID,359,VALID,0.0878906,
2014-04-28, 07:16:04,VALID,918.66,VALID,0,VALID,92.533,VALID,64.8945,VALID,19.6248,VALID,360,VALID,0.387109,
2014-04-28, 07:17:04,VALID,918.659,VALID,0,VALID,92.3043,VALID,66.3986,VALID,19.6653,VALID,359,VALID,0.539063,
2014-04-28, 07:18:04,VALID,918.707,VALID,0,VALID,92.1061,VALID,67.2582,VALID,19.6833,VALID,360,VALID,0.496484,
2014-04-28, 07:19:04,VALID,918.718,VALID,0,VALID,92.0909,VALID,67.9028,VALID,19.7223,VALID,360,VALID,0.194141,
2014-04-28, 07:20:04,VALID,918.701,VALID,0,VALID,91.9231,VALID,69.2995,VALID,19.7418,VALID,359,VALID,0.204688,
2014-04-28, 07:21:04,VALID,918.76,VALID,0,VALID,91.8698,VALID,71.7707,VALID,19.7808,VALID,359,VALID,0,
2014-04-28, 07:22:04,VALID,918.753,VALID,0,VALID,92.0756,VALID,75.4237,VALID,19.8393,VALID,359,VALID,0.327734,
2014-04-28, 07:23:04,VALID,918.757,VALID,0,VALID,91.8622,VALID,79.1841,VALID,19.8393,VALID,359,VALID,0.436719,
2014-04-28, 07:24:04,VALID,918.76,VALID,0,VALID,91.664,VALID,83.4818,VALID,19.8393,VALID,359,VALID,0.333203,
2014-04-28, 07:25:04,VALID,918.771,VALID,0,VALID,91.5191,VALID,89.7134,VALID,19.8588,VALID,359,VALID,0.257031,
2014-04-28, 07:26:04,VALID,918.738,VALID,0,VALID,91.4505,VALID,95.4077,VALID,19.9188,VALID,356,VALID,0.485156,
2014-04-28, 07:27:04,VALID,918.698,VALID,0,VALID,91.1989,VALID,99.2756,VALID,19.9368,VALID,356,VALID,0.651953,
2014-04-28, 07:28:04,VALID,918.7,VALID,0,VALID,90.8711,VALID,105.077,VALID,19.9758,VALID,356,VALID,0.867969,
2014-04-28, 07:29:04,VALID,918.707,VALID,0,VALID,90.6043,VALID,111.094,VALID,19.9953,VALID,356,VALID,0.555859,
2014-04-28, 07:30:04,VALID,918.7,VALID,0,VALID,90.5357,VALID,117.111,VALID,20.0733,VALID,356,VALID,0.434766,
2014-04-28, 07:31:04,VALID,918.666,VALID,0,VALID,90.4899,VALID,120.764,VALID,20.1139,VALID,355,VALID,0,
2014-04-28, 07:32:04,VALID,918.724,VALID,0,VALID,90.2231,VALID,125.599,VALID,20.1513,VALID,353,VALID,0.721094,
2014-04-28, 07:33:04,VALID,918.71,VALID,0,VALID,89.7657,VALID,128.822,VALID,20.2098,VALID,353,VALID,0.386328,
2014-04-28, 07:34:04,VALID,918.703,VALID,0,VALID,89.7962,VALID,134.409,VALID,20.2879,VALID,352,VALID,0.0578125,
2014-04-28, 07:35:04,VALID,918.707,VALID,0,VALID,90.3832,VALID,137.847,VALID,20.3253,VALID,345,VALID,0.585547,
2014-04-28, 07:36:04,VALID,918.734,VALID,0,VALID,89.2702,VALID,141.822,VALID,20.2894,VALID,330,VALID,0.822266,
2014-04-28, 07:37:04,VALID,918.747,VALID,0,VALID,89.4227,VALID,146.013,VALID,20.3479,VALID,330,VALID,0.616797,
2014-04-28, 07:38:04,VALID,918.741,VALID,0,VALID,89.8038,VALID,152.029,VALID,20.4064,VALID,353,VALID,0.627344,
2014-04-28, 07:39:04,VALID,918.755,VALID,0,VALID,90.368,VALID,170.509,VALID,20.4244,VALID,351,VALID,0.860937,
2014-04-28, 07:40:04,VALID,918.779,VALID,0,VALID,89.6133,VALID,191.675,VALID,20.4454,VALID,359,VALID,0.954687,
2014-04-28, 07:41:04,VALID,918.782,VALID,0,VALID,89.9716,VALID,215.205,VALID,20.543,VALID,345,VALID,0.984766,
2014-04-28, 07:42:04,VALID,918.803,VALID,0,VALID,89.0034,VALID,248.297,VALID,20.543,VALID,330,VALID,1.10117,
2014-04-28, 07:43:04,VALID,918.834,VALID,0,VALID,88.9805,VALID,283.537,VALID,20.621,VALID,330,VALID,0.430469,
2014-04-28, 07:44:04,VALID,918.846,VALID,0,VALID,88.95,VALID,322.431,VALID,20.7185,VALID,330,VALID,0.816797,
2014-04-28, 07:45:04,VALID,918.832,VALID,0,VALID,88.7518,VALID,344.671,VALID,20.8161,VALID,358,VALID,1.15234,
2014-04-28, 07:46:04,VALID,918.845,VALID,0,VALID,89.0034,VALID,347.572,VALID,20.9527,VALID,351,VALID,0.742969,
2014-04-28, 07:47:04,VALID,918.834,VALID,0,VALID,87.8294,VALID,349.291,VALID,21.0681,VALID,352,VALID,1.74648,
2014-04-28, 07:48:04,VALID,918.89,VALID,0,VALID,86.9984,VALID,353.481,VALID,21.2047,VALID,354,VALID,1.39688,
2014-04-28, 07:49:04,VALID,918.88,VALID,0,VALID,85.5424,VALID,357.242,VALID,21.3217,VALID,349,VALID,1.68359,
2014-04-28, 07:50:04,VALID,918.877,VALID,0,VALID,85.672,VALID,358.531,VALID,21.3608,VALID,8,VALID,1.83594,
2014-04-28, 07:51:04,VALID,918.905,VALID,0,VALID,87.2729,VALID,362.184,VALID,21.4794,VALID,7,VALID,1.12227,
2014-04-28, 07:52:04,VALID,918.921,VALID,0,VALID,87.2271,VALID,365.622,VALID,21.6339,VALID,8,VALID,1.11953,
2014-04-28, 07:53:04,VALID,918.929,VALID,0,VALID,84.2159,VALID,372.391,VALID,21.7315,VALID,336,VALID,0.853125,
2014-04-28, 07:54:04,VALID,918.94,VALID,0,VALID,86.8993,VALID,377.226,VALID,21.8876,VALID,26,VALID,0.460938,
2014-04-28, 07:55:04,VALID,918.926,VALID,0,VALID,84.9401,VALID,383.35,VALID,21.9461,VALID,322,VALID,0.540234,
2014-04-28, 07:56:04,VALID,918.947,VALID,0,VALID,82.8437,VALID,386.573,VALID,21.9656,VALID,308,VALID,1.40195,
2014-04-28, 07:57:04,VALID,918.946,VALID,0,VALID,82.9351,VALID,389.044,VALID,21.9444,VALID,329,VALID,0.871094,
2014-04-28, 07:58:04,VALID,918.96,VALID,0,VALID,83.9033,VALID,391.408,VALID,21.9444,VALID,319,VALID,0.581641,
2014-04-28, 07:59:04,VALID,918.962,VALID,0,VALID,85.3441,VALID,392.912,VALID,22.0615,VALID,321,VALID,0.571484,
2014-04-28, 08:00:04,VALID,918.957,VALID,0,VALID,85.1764,VALID,394.739,VALID,22.1981,VALID,21,VALID,0.766016,
2014-04-28, 08:01:04,VALID,918.998,VALID,0,VALID,85.7177,VALID,395.383,VALID,22.3542,VALID,21,VALID,0.474609,
2014-04-28, 08:02:04,VALID,918.999,VALID,0,VALID,84.658,VALID,403.549,VALID,22.5316,VALID,28,VALID,1.17383,
2014-04-28, 08:03:04,VALID,919.002,VALID,0,VALID,82.4549,VALID,411.285,VALID,22.6292,VALID,360,VALID,0.979297,
2014-04-28, 08:04:04,VALID,919.002,VALID,0,VALID,80.023,VALID,417.839,VALID,22.647,VALID,319,VALID,1.0418,
2014-04-28, 08:05:04,VALID,919.012,VALID,0,VALID,80.8235,VALID,421.384,VALID,22.5689,VALID,330,VALID,0.471484,
2014-04-28, 08:06:04,VALID,919.014,VALID,0,VALID,82.188,VALID,426.219,VALID,22.5884,VALID,3,VALID,0.973047,
2014-04-28, 08:07:04,VALID,919.009,VALID,0,VALID,83.1029,VALID,428.69,VALID,22.7055,VALID,16,VALID,1.38203,
2014-04-28, 08:08:04,VALID,919.031,VALID,0,VALID,81.1589,VALID,430.732,VALID,22.8616,VALID,356,VALID,0.748438,
2014-04-28, 08:09:04,VALID,919.058,VALID,0,VALID,81.075,VALID,433.095,VALID,22.9592,VALID,328,VALID,0.592578,
2014-04-28, 08:10:04,VALID,919.045,VALID,0,VALID,80.671,VALID,433.525,VALID,22.9983,VALID,359,VALID,0.576172,
2014-04-28, 08:11:04,VALID,919.077,VALID,0,VALID,79.5503,VALID,435.137,VALID,22.9787,VALID,318,VALID,0.996875,
2014-04-28, 08:12:04,VALID,919.106,VALID,0,VALID,81.3419,VALID,437.5,VALID,22.9397,VALID,332,VALID,0.0925781,
2014-04-28, 08:13:04,VALID,919.095,VALID,0,VALID,80.6329,VALID,438.575,VALID,23.0763,INVALID,360,VALID,0,
2014-04-28, 08:14:04,VALID,919.117,VALID,0,VALID,79.5808,VALID,442.335,VALID,23.252,VALID,333,VALID,0.370703,
2014-04-28, 08:15:04,VALID,919.115,VALID,0,VALID,80.3508,VALID,443.732,VALID,23.1527,VALID,298,VALID,0.399609,
2014-04-28, 08:16:04,VALID,919.139,VALID,0,VALID,80.8235,VALID,449.211,VALID,23.2893,VALID,4,VALID,0.545313,
2014-04-28, 08:17:04,VALID,919.155,VALID,0,VALID,80.5566,VALID,452.327,VALID,23.5626,VALID,3,VALID,1.14727,
2014-04-28, 08:18:04,VALID,919.165,VALID,0,VALID,78.91,VALID,458.237,VALID,23.8163,VALID,4,VALID,0.558594,
2014-04-28, 08:19:04,VALID,919.206,VALID,0,VALID,76.6687,VALID,463.179,VALID,24.0506,VALID,14,VALID,0.975,
2014-04-28, 08:20:04,VALID,919.236,VALID,0,VALID,76.8745,VALID,468.336,VALID,24.111,VALID,3,VALID,0.289844,
2014-04-28, 08:21:04,VALID,919.237,VALID,0,VALID,74.4274,VALID,473.386,VALID,24.1891,VALID,360,VALID,0,
2014-04-28, 08:22:04,VALID,919.283,VALID,0,VALID,73.8557,VALID,478.006,VALID,24.0915,VALID,297,VALID,1.05352,
2014-04-28, 08:23:04,VALID,919.297,VALID,0,VALID,75.9063,VALID,487.031,VALID,23.8554,VALID,314,VALID,0.265234,
2014-04-28, 08:24:04,VALID,919.324,VALID,0,VALID,74.9839,VALID,490.899,VALID,23.9139,VALID,304,VALID,0.426562,
2014-04-28, 08:25:04,VALID,919.323,VALID,0,VALID,76.6763,VALID,501.965,VALID,23.9548,VALID,312,VALID,0.330469,
2014-04-28, 08:26:04,VALID,919.363,VALID,0,VALID,76.1351,VALID,506.692,VALID,24.0701,VALID,15,VALID,0.718359,
2014-04-28, 08:27:04,VALID,919.358,VALID,0,VALID,73.7032,VALID,511.205,VALID,24.0115,VALID,316,VALID,1.14375,
2014-04-28, 08:28:04,VALID,919.387,VALID,0,VALID,76.0283,VALID,518.081,VALID,23.7968,VALID,313,VALID,0.673828,
2014-04-28, 08:29:04,VALID,919.407,VALID,0,VALID,75.3575,VALID,512.924,VALID,23.7968,VALID,312,VALID,0.383984,
2014-04-28, 08:30:04,VALID,919.424,VALID,0,VALID,76.318,VALID,523.776,VALID,23.7968,VALID,306,VALID,0.710156,
2014-04-28, 08:31:04,VALID,919.427,VALID,0,VALID,75.0068,VALID,533.553,VALID,23.8731,VALID,319,VALID,1.22578,
2014-04-28, 08:32:04,VALID,919.474,VALID,0,VALID,76.9965,VALID,482.733,VALID,23.9725,VALID,34,VALID,0.604688,
2014-04-28, 08:33:04,VALID,919.521,VALID,0,VALID,76.2951,VALID,454.476,VALID,24.1287,VALID,29,VALID,1.06094,
2014-04-28, 08:34:04,VALID,919.542,VALID,0,VALID,76.8593,VALID,405.805,VALID,24.2245,VALID,40,VALID,0.747656,
2014-04-28, 08:35:04,VALID,919.559,VALID,0,VALID,75.5023,VALID,390.656,VALID,24.363,VALID,10,VALID,0.66875,
2014-04-28, 08:36:04,VALID,919.598,VALID,0,VALID,75.5938,VALID,406.02,VALID,24.3611,VALID,6,VALID,0.614844,
2014-04-28, 08:37:04,VALID,919.599,VALID,0,VALID,74.9153,VALID,451.253,VALID,24.4392,VALID,12,VALID,0.303125,
2014-04-28, 08:38:04,VALID,919.614,VALID,0,VALID,73.9776,VALID,492.295,VALID,24.5954,VALID,23,VALID,1.38945,
2014-04-28, 08:39:04,VALID,919.659,VALID,0,VALID,74.0691,VALID,279.347,VALID,24.6559,VALID,28,VALID,1.1625,
2014-04-28, 08:40:04,VALID,919.646,VALID,0,VALID,73.6803,VALID,300.405,VALID,24.6149,VALID,1,VALID,1.17969,
2014-04-28, 08:41:04,VALID,919.685,VALID,0,VALID,72.7198,VALID,298.042,VALID,24.5759,VALID,335,VALID,0.163672,
2014-04-28, 08:42:04,VALID,919.743,VALID,0,VALID,72.0337,VALID,267.206,VALID,24.4783,VALID,316,VALID,0.528125,
2014-04-28, 08:43:04,VALID,919.778,VALID,0,VALID,72.1785,VALID,499.279,VALID,24.3806,VALID,314,VALID,0.746484,
2014-04-28, 08:44:04,VALID,919.768,VALID,0,VALID,71.9193,VALID,525.065,VALID,24.3416,VALID,12,VALID,1.03555,
2014-04-28, 08:45:04,VALID,919.76,VALID,0,VALID,73.787,VALID,495.948,VALID,24.3221,VALID,8,VALID,0.714453,
2014-04-28, 08:46:04,VALID,919.788,VALID,0,VALID,73.5355,VALID,446.633,VALID,24.3611,VALID,12,VALID,1.80313,
2014-04-28, 08:47:04,VALID,919.833,VALID,0,VALID,72.7655,VALID,333.712,VALID,24.4197,VALID,340,VALID,0.719922,
2014-04-28, 08:48:04,VALID,919.833,VALID,0,VALID,73.0476,VALID,582.546,VALID,24.3416,VALID,24,VALID,1.0457,
2014-04-28, 08:49:04,VALID,919.843,VALID,0,VALID,72.9027,VALID,592.001,VALID,24.3221,VALID,316,VALID,1.03555,
2014-04-28, 08:50:04,VALID,919.863,VALID,0,VALID,73.7337,VALID,543.222,VALID,24.3611,VALID,312,VALID,0.992188,
2014-04-28, 08:51:04,VALID,919.878,VALID,0,VALID,74.0844,VALID,482.626,VALID,24.4392,VALID,29,VALID,0.460156,
2014-04-28, 08:52:04,VALID,919.882,VALID,0,VALID,72.7808,VALID,481.659,VALID,24.5368,VALID,24,VALID,0.333594,
2014-04-28, 08:53:04,VALID,919.903,VALID,0,VALID,72.0489,VALID,547.305,VALID,24.693,VALID,337,VALID,0.719531,
2014-04-28, 08:54:04,VALID,919.924,VALID,0,VALID,72.7731,VALID,547.842,VALID,24.7907,VALID,356,VALID,0.948438,
2014-04-28, 08:55:04,VALID,919.926,VALID,0,VALID,71.6754,VALID,533.123,VALID,24.8492,VALID,301,VALID,1.44805,
2014-04-28, 08:56:04,VALID,919.925,VALID,0,VALID,72.8036,VALID,560.95,VALID,24.6735,VALID,12,VALID,1.57422,
2014-04-28, 08:57:04,VALID,919.995,VALID,0,VALID,73.9624,VALID,527.536,VALID,24.6716,VALID,13,VALID,0.196875,
2014-04-28, 08:58:04,VALID,919.953,VALID,0,VALID,70.8673,VALID,517.544,VALID,24.8492,VALID,334,VALID,0.867578,
2014-04-28, 08:59:04,VALID,919.965,VALID,0,VALID,72.6816,VALID,448.567,VALID,24.8474,VALID,6,VALID,1.10586,
2014-04-28, 09:00:04,VALID,919.97,VALID,0,VALID,72.2166,VALID,568.256,VALID,24.8083,VALID,4,VALID,0.876562,
2014-04-28, 09:01:04,VALID,919.956,VALID,0,VALID,75.4032,VALID,582.546,VALID,24.8688,VALID,22,VALID,1.12891,
2014-04-28, 09:02:04,VALID,919.944,VALID,0,VALID,72.5063,VALID,619.076,VALID,24.8864,VALID,342,VALID,0.826563,
2014-04-28, 09:03:04,VALID,919.955,VALID,0,VALID,71.5991,VALID,652.92,VALID,24.8492,VALID,347,VALID,1.05859,
2014-04-28, 09:04:04,VALID,919.932,VALID,0,VALID,75.1974,VALID,425.36,VALID,24.7888,VALID,18,VALID,1.43555,
2014-04-28, 09:05:04,VALID,919.965,VALID,0,VALID,73.2534,VALID,355.738,VALID,24.7693,VALID,22,VALID,1.48242,
2014-04-28, 09:06:04,VALID,919.969,VALID,0,VALID,72.5444,VALID,309.968,VALID,24.6912,VALID,359,VALID,0.925,
2014-04-28, 09:07:04,VALID,920.002,VALID,0,VALID,74.9915,VALID,444.377,VALID,24.4374,VALID,24,VALID,1.58555,
2014-04-28, 09:08:04,VALID,919.931,VALID,0,VALID,74.5875,VALID,598.877,VALID,24.3788,VALID,13,VALID,1.74883,
2014-04-28, 09:09:04,VALID,919.957,VALID,0,VALID,75.7463,VALID,542.47,VALID,24.3593,VALID,27,VALID,0.716016,
2014-04-28, 09:10:04,VALID,919.94,VALID,0,VALID,72.5368,VALID,574.166,VALID,24.4374,VALID,23,VALID,1.72383,
2014-04-28, 09:11:04,VALID,919.932,VALID,0,VALID,74.8238,VALID,569.975,VALID,24.4569,VALID,20,VALID,1.63711,
2014-04-28, 09:12:04,VALID,919.909,VALID,0,VALID,74.7933,VALID,568.793,VALID,24.535,VALID,33,VALID,1.37227,
2014-04-28, 09:13:04,VALID,919.913,VALID,0,VALID,74.9306,VALID,571.909,VALID,24.5954,VALID,14,VALID,0.687891,
2014-04-28, 09:14:04,VALID,919.937,VALID,0,VALID,74.6256,VALID,573.521,VALID,24.6345,VALID,32,VALID,1.02891,
2014-04-28, 09:15:04,VALID,919.966,VALID,0,VALID,74.0539,VALID,574.273,VALID,24.693,VALID,1,VALID,1.30273,
2014-04-28, 09:16:04,VALID,919.946,VALID,0,VALID,73.7489,VALID,583.191,VALID,24.7907,VALID,13,VALID,1.32578,
2014-04-28, 09:17:04,VALID,919.958,VALID,0,VALID,73.9243,VALID,602.53,VALID,24.9664,VALID,15,VALID,1.43164,
2014-04-28, 09:18:04,VALID,919.975,VALID,0,VALID,71.9269,VALID,590.819,VALID,25.1812,VALID,35,VALID,1.39844,
2014-04-28, 09:19:04,VALID,920.023,VALID,0,VALID,72.8951,VALID,585.447,VALID,25.4722,VALID,41,VALID,0.945703,
2014-04-28, 09:20:04,VALID,920.014,VALID,0,VALID,70.3184,VALID,555.471,VALID,25.728,VALID,38,VALID,1.46953,
2014-04-28, 09:21:04,VALID,920.064,VALID,0,VALID,69.4798,VALID,537.206,VALID,25.8257,VALID,11,VALID,1.09922,
2014-04-28, 09:22:04,VALID,920.046,VALID,0,VALID,70.7301,VALID,605.753,VALID,25.8062,VALID,5,VALID,0.900781,
2014-04-28, 09:23:04,VALID,920.062,VALID,0,VALID,71.8354,VALID,667.317,VALID,25.8081,VALID,38,VALID,1.16328,
2014-04-28, 09:24:04,VALID,920.097,VALID,0,VALID,71.2027,VALID,682.896,VALID,25.8843,VALID,44,VALID,0.633594,
2014-04-28, 09:25:04,VALID,920.12,VALID,0,VALID,69.0377,VALID,733.608,VALID,25.982,VALID,349,VALID,0.679297,
2014-04-28, 09:26:04,VALID,920.14,VALID,0,VALID,66.7811,VALID,737.476,VALID,25.982,VALID,341,VALID,0.558984,
2014-04-28, 09:27:04,VALID,920.122,VALID,0,VALID,69.3578,VALID,705.996,VALID,25.7261,VALID,1,VALID,1.13477,
2014-04-28, 09:28:04,VALID,920.134,VALID,0,VALID,68.2219,VALID,598.877,VALID,25.7261,VALID,358,VALID,1.08828,
2014-04-28, 09:29:04,VALID,920.162,VALID,0,VALID,68.5726,VALID,673.441,VALID,25.7456,VALID,315,VALID,0.539063,
2014-04-28, 09:30:04,VALID,920.183,VALID,0,VALID,69.1749,VALID,621.654,VALID,25.8257,VALID,315,VALID,0.40625,
2014-04-28, 09:31:04,VALID,920.136,VALID,0,VALID,68.2601,VALID,530.974,VALID,26.0015,VALID,19,VALID,0.307031,
2014-04-28, 09:32:04,VALID,920.161,VALID,0,VALID,69.9296,VALID,497.453,VALID,26.0796,VALID,22,VALID,0.927344,
2014-04-28, 09:33:04,VALID,920.156,VALID,0,VALID,69.2587,VALID,457.699,VALID,25.9604,VALID,20,VALID,1.56523,
2014-04-28, 09:34:04,VALID,920.185,VALID,0,VALID,70.5166,VALID,533.875,VALID,25.8042,VALID,33,VALID,1.88281,
2014-04-28, 09:35:04,VALID,920.157,VALID,0,VALID,71.8736,VALID,541.611,VALID,25.7066,VALID,27,VALID,1.50352,
2014-04-28, 09:36:04,VALID,920.198,VALID,0,VALID,70.0439,VALID,552.033,VALID,25.7066,VALID,343,VALID,1.02773,
2014-04-28, 09:37:04,VALID,920.181,VALID,0,VALID,70.8292,VALID,563.744,VALID,25.6284,VALID,10,VALID,1.02383,
2014-04-28, 09:38:04,VALID,920.202,VALID,0,VALID,69.0377,VALID,556.438,VALID,25.6304,VALID,5,VALID,1.10742,
2014-04-28, 09:39:04,VALID,920.175,VALID,0,VALID,70.8139,VALID,526.784,VALID,25.5894,VALID,15,VALID,1.50859,
2014-04-28, 09:40:04,VALID,920.157,VALID,0,VALID,69.2664,VALID,502.825,VALID,25.4331,VALID,25,VALID,1.58867,
2014-04-28, 09:41:04,VALID,920.174,VALID,0,VALID,70.1735,VALID,487.568,VALID,25.1598,VALID,335,VALID,1.61094,
2014-04-28, 09:42:04,VALID,920.161,VALID,0,VALID,70.631,VALID,481.229,VALID,24.9059,VALID,14,VALID,1.87227,
2014-04-28, 09:43:04,VALID,920.135,VALID,0,VALID,72.6207,VALID,483.378,VALID,24.6735,VALID,342,VALID,1.04922,
2014-04-28, 09:44:04,VALID,920.112,VALID,0,VALID,74.5036,VALID,491.436,VALID,24.693,VALID,19,VALID,1.10703,
2014-04-28, 09:45:04,VALID,920.112,VALID,0,VALID,73.7565,VALID,502.825,VALID,24.8474,VALID,43,VALID,0.984375,
2014-04-28, 09:46:04,VALID,920.118,VALID,0,VALID,75.2126,VALID,524.528,VALID,24.9645,VALID,33,VALID,1.27539,
2014-04-28, 09:47:04,VALID,920.116,VALID,0,VALID,72.3615,VALID,520.338,VALID,25.1207,VALID,33,VALID,0.534375,
2014-04-28, 09:48:04,VALID,920.09,VALID,0,VALID,71.8736,VALID,529.148,VALID,25.2574,VALID,37,VALID,1.66797,
2014-04-28, 09:49:04,VALID,920.055,VALID,0,VALID,72.3233,VALID,538.817,VALID,25.3355,VALID,20,VALID,1.17734,
2014-04-28, 09:50:04,VALID,920.065,VALID,0,VALID,70.4022,VALID,532.478,VALID,25.4917,VALID,359,VALID,0.448828,
2014-04-28, 09:51:04,VALID,920.01,VALID,0,VALID,72.0946,VALID,526.569,VALID,25.5698,VALID,52,VALID,1.15977,
2014-04-28, 09:52:04,VALID,920.017,VALID,0,VALID,70.8063,VALID,510.99,VALID,25.6284,VALID,52,VALID,0.237891,
2014-04-28, 09:53:04,VALID,919.987,VALID,0,VALID,69.4112,VALID,500.139,VALID,25.5503,VALID,52,VALID,0.623828,
2014-04-28, 09:54:04,VALID,919.989,VALID,0,VALID,70.2727,VALID,500.676,VALID,25.5523,VALID,118,VALID,0.598047,
2014-04-28, 09:55:04,VALID,919.989,VALID,0,VALID,69.8534,VALID,510.453,VALID,25.7261,VALID,117,VALID,0.166016,
2014-04-28, 09:56:04,VALID,919.965,VALID,0,VALID,69.6399,VALID,543.008,VALID,25.8628,VALID,117,VALID,0.341797,
2014-04-28, 09:57:04,VALID,919.99,VALID,0,VALID,67.8255,VALID,524.313,VALID,25.607,VALID,311,VALID,1.29492,
2014-04-28, 09:58:04,VALID,919.954,VALID,0,VALID,69.8457,VALID,534.95,VALID,25.4136,VALID,285,VALID,0.662891,
2014-04-28, 09:59:04,VALID,919.945,VALID,0,VALID,70.9511,VALID,565.678,VALID,25.4331,VALID,348,VALID,1.17539,
2014-04-28, 10:00:04,VALID,919.935,VALID,0,VALID,70.265,VALID,558.801,VALID,25.5698,VALID,14,VALID,0.590234,
2014-04-28, 10:01:04,VALID,919.933,VALID,0,VALID,67.9932,VALID,796.139,VALID,25.6675,VALID,329,VALID,0.980078,
2014-04-28, 10:02:04,VALID,919.882,VALID,0,VALID,69.7848,VALID,601.885,VALID,25.5894,VALID,360,VALID,1.23867,
2014-04-28, 10:03:04,VALID,919.916,VALID,0,VALID,70.6081,VALID,629.175,VALID,25.5698,VALID,360,VALID,0.130078,
2014-04-28, 10:04:04,VALID,919.9,VALID,0,VALID,70.509,VALID,674.193,VALID,25.687,VALID,360,VALID,0.989453,
2014-04-28, 10:05:04,VALID,919.897,VALID,0,VALID,70.9664,VALID,859.959,VALID,25.8999,VALID,317,VALID,0.647656,
2014-04-28, 10:06:04,VALID,919.914,VALID,0,VALID,68.6107,VALID,811.933,VALID,26.1558,VALID,288,VALID,0.779297,
2014-04-28, 10:07:04,VALID,919.883,VALID,0,VALID,68.9233,VALID,299.331,VALID,26.0171,VALID,287,VALID,0.716797,
2014-04-28, 10:08:04,VALID,919.868,VALID,0,VALID,68.7251,VALID,884.241,VALID,26.0581,VALID,355,VALID,0.601953,
2014-04-28, 10:09:04,VALID,919.846,VALID,0,VALID,69.8915,VALID,867.265,VALID,26.273,VALID,4,VALID,0.691797,
2014-04-28, 10:10:04,VALID,919.828,VALID,0,VALID,67.4062,VALID,871.455,VALID,26.4663,VALID,359,VALID,1.51797,
2014-04-28, 10:11:04,VALID,919.789,VALID,0,VALID,67.3148,VALID,861.248,VALID,26.5054,VALID,341,VALID,0.910156,
2014-04-28, 10:12:04,VALID,919.818,VALID,0,VALID,66.6058,VALID,860.281,VALID,26.4508,VALID,358,VALID,1.08945,
2014-04-28, 10:13:04,VALID,919.806,VALID,0,VALID,67.2004,VALID,852.868,VALID,26.314,VALID,357,VALID,1.45781,
2014-04-28, 10:14:04,VALID,919.807,VALID,0,VALID,69.091,VALID,826.008,VALID,26.1558,VALID,359,VALID,0.977344,
2014-04-28, 10:15:04,VALID,919.754,VALID,0,VALID,68.9309,VALID,734.683,VALID,26.1773,VALID,24,VALID,1.55,
2014-04-28, 10:16:04,VALID,919.769,VALID,0,VALID,68.6794,VALID,556.008,VALID,26.019,VALID,31,VALID,1.06484,
2014-04-28, 10:17:04,VALID,919.758,VALID,0,VALID,67.6349,VALID,737.691,VALID,25.7261,VALID,360,VALID,1.35625,
2014-04-28, 10:18:04,VALID,919.766,VALID,0,VALID,69.922,VALID,795.602,VALID,25.5503,VALID,8,VALID,0.422266,
2014-04-28, 10:19:04,VALID,919.752,VALID,0,VALID,69.8457,VALID,839.975,VALID,25.5503,VALID,319,VALID,0.803516,
2014-04-28, 10:20:04,VALID,919.737,VALID,0,VALID,68.1915,VALID,857.166,VALID,25.5308,VALID,325,VALID,1.69258,
2014-04-28, 10:21:04,VALID,919.721,VALID,0,VALID,71.5153,VALID,935.168,VALID,25.5503,VALID,36,VALID,0.524219,
2014-04-28, 10:22:04,VALID,919.738,VALID,0,VALID,69.7848,VALID,875.43,VALID,25.7651,VALID,3,VALID,0.901953,
2014-04-28, 10:23:04,VALID,919.76,VALID,0,VALID,70.0287,VALID,964.714,VALID,25.9604,VALID,12,VALID,1.31211,
2014-04-28, 10:24:04,VALID,919.737,VALID,0,VALID,67.978,VALID,531.189,VALID,26.1167,VALID,24,VALID,1.45781,
2014-04-28, 10:25:04,VALID,919.747,VALID,0,VALID,68.2906,VALID,663.234,VALID,26.2339,VALID,22,VALID,0.774609,
2014-04-28, 10:26:04,VALID,919.729,VALID,0,VALID,69.3502,VALID,255.495,VALID,26.312,VALID,22,VALID,1.13086,
2014-04-28, 10:27:04,VALID,919.732,VALID,0,VALID,66.56,VALID,288.694,VALID,26.3316,VALID,329,VALID,1.59023,
2014-04-28, 10:28:04,VALID,919.753,VALID,0,VALID,67.9856,VALID,335.968,VALID,26.1753,VALID,101,VALID,0.473437,
2014-04-28, 10:29:04,VALID,919.71,VALID,0,VALID,69.9067,VALID,774.114,VALID,26.2144,VALID,32,VALID,0.878125,
2014-04-28, 10:30:04,VALID,919.774,VALID,0,VALID,66.1408,VALID,918.299,VALID,26.3511,VALID,348,VALID,0.725391,
2014-04-28, 10:31:04,VALID,919.765,VALID,0,VALID,65.8739,VALID,913.572,VALID,26.3296,VALID,309,VALID,0.870313,